Location: Fayetteville
(35.0530°N, 78.8790°W)
Time: 23:31:10
(UTC-04:00)

Hubble Space Telescope - Visible Passes

Search period start: 16 June 2019 00:00
Search period end: 26 June 2019 00:00
Orbit: 536 x 540 km, 28.5° (Epoch: 16 June)

Date Brightness Start Highest point End Pass type
(mag) Time Alt. Az. Time Alt. Az. Time Alt. Az.
16 Jun 3.4 03:16:34 11° ESE 03:16:34 11° ESE 03:16:42 10° ESE visible
16 Jun 1.6 04:51:54 20° SW 04:54:05 32° S 04:57:47 10° ESE visible
17 Jun 1.6 04:41:58 24° SW 04:43:30 32° S 04:47:11 10° ESE visible
18 Jun 1.6 04:32:08 28° SSW 04:32:56 30° S 04:36:33 10° ESE visible
19 Jun 1.7 04:22:27 28° S 04:22:27 28° S 04:25:54 10° SE visible
20 Jun 2.2 04:12:58 22° SSE 04:12:58 22° SSE 04:15:12 10° SE visible
21 Jun 2.9 04:03:43 14° SSE 04:03:43 14° SSE 04:04:28 10° SE visible
24 Jun 2.7 22:13:23 10° SSW 22:14:46 16° SSW 22:14:46 16° SSW visible
25 Jun 2.0 22:02:33 10° SW 22:05:32 23° S 22:05:32 23° S visible
